Location: *
(57.8420°S, 159.8600°W)
Time: 04:12:00
(UTC+00:00)

USA 238 DEB - Pass Details

Date: 18 May 2021
Orbit: 991 x 1221 km, 63.4° (Epoch: 18 June)

Event Time Altitude Azimuth Distance (km) Brightness Sun altitude
Rises 04:30:15 0° 287° (WNW) 4,096 8.6 -15.8°
Reaches altitude 10° 04:33:05 10° 284° (WNW) 3,110 7.5 -16.1°
Maximum altitude 04:40:31 67° 201° (SSW) 1,230 4.0 -17.1°
Enters shadow 04:45:09 23° 123° (ESE) 2,154 4.8 -17.7°
